Tracking 30402 objects as of 12-May-2025
HD Live streaming from Space Station
objects crossing your sky now

PEGASUS R/B

Track PEGASUS R/B now!
10-day predictions


NORAD ID: 25506
Int'l Code: 1998-060B
Perigee: 724.1 km
Apogee: 756.3 km
Inclination: 25.0 °
Period: 99.5 minutes
Semi major axis: 7111 km
RCS: 1.6048 m2 (large)
Launch date: October 23, 1998
Source: United States (US)
Launch site: Pegasus launched from Eastern Range Air Space (ERAS)

Note: This is a ROCKET BODY
Your satellite tracking list
Your tracking list is empty




NASA's NSSDC Master Catalog

Two Line Element Set (TLE):
1 25506U 98060B   25131.91762733  .00000543  00000-0  95332-4 0  9999
2 25506  24.9949 199.6533 0022632 154.7868   5.9008 14.47720545404039
Source of the keplerian elements: AFSPC